This is the latest recevied weather packets stored in our database for station/object EA3CTN-13. If no packets are shown the sender has not sent any weather packets the latest 10 day(s).
| Time | Temp. | Humidity | Pressure | Rain* | Wind** | Luminosity | Snow |
|---|---|---|---|---|---|---|---|
| 1787819902 | 30° C | 54% | 1012.2 hPa | - | - | - | - |
| 1787819422 | 30° C | 54% | 1012 hPa | - | - | - | - |
| 1787818942 | 30° C | 55% | 1012.1 hPa | - | - | - | - |
| 1787818462 | 30° C | 56% | 1011.8 hPa | - | - | - | - |
| 1787817982 | 30° C | 57% | 1011.8 hPa | - | - | - | - |
| 1787817502 | 30° C | 56% | 1011.6 hPa | - | - | - | - |
| 1787817022 | 30° C | 59% | 1011.4 hPa | - | - | - | - |
| 1787816542 | 29.44° C | 60% | 1011.3 hPa | - | - | - | - |
| 1787816062 | 29.44° C | 60% | 1011.4 hPa | - | - | - | - |
| 1787815582 | 29.44° C | 62% | 1011.4 hPa | - | - | - | - |
| 1787781981 | 30° C | 63% | 1011.8 hPa | - | - | - | - |
| 1787781502 | 30° C | 63% | 1011.8 hPa | - | - | - | - |
| 1787781022 | 30° C | 62% | 1011.7 hPa | - | - | - | - |
| 1787780542 | 30° C | 62% | 1011.7 hPa | - | - | - | - |
| 1787780062 | 30° C | 62% | 1011.7 hPa | - | - | - | - |
| 1787779582 | 30° C | 60% | 1011.7 hPa | - | - | - | - |
| 1787779102 | 30° C | 61% | 1011.6 hPa | - | - | - | - |
| 1787778622 | 30° C | 60% | 1011.7 hPa | - | - | - | - |
| 1787778141 | 30° C | 60% | 1011.5 hPa | - | - | - | - |
| 1787777679 | 30° C | 60% | 1011.6 hPa | - | - | - | - |
| 1787777182 | 30° C | 61% | 1011.8 hPa | - | - | - | - |
| 1787776702 | 30° C | 61% | 1011.8 hPa | - | - | - | - |
| 1787776222 | 30° C | 60% | 1011.8 hPa | - | - | - | - |
| 1787775742 | 30° C | 57% | 1011.7 hPa | - | - | - | - |
| 1787775262 | 30° C | 60% | 1011.7 hPa | - | - | - | - |
* Rain since midnight (hover to see other rain measurements)
** Current wind speed in m/s (hover to see current wind gust speed)